Regional Weather Roundup
Issued by NWS Midland/Odessa, TX

Skip options and go directly to product.
Home | Oldest Version | Previous Version | Current Version | All | Graphics & Text | Save Text | Print | Product List | Glossary On

Skip product version selection by date and time.   
862
ASUS44 KMAF 311610
RWRMAF
MIDLAND AREA WEATHER ROUNDUP
NATIONAL WEATHER SERVICE MIDLAND TX
1000 AM CST SAT JAN 31 2015

...IN SOUTHWEST TEXAS AND SOUTHEAST NEW MEXICO...

CITY           SKY/WX    TMP DP  RH WIND       PRES   REMARKS
ALPINE         SUNNY     50  48  93 S17       30.02S
ANDREWS        FOG       40  40 100 SE7       30.00S VSB 1/4 WCI  36
ARTESIA        NOT AVBL
BIG SPRING     CLOUDY    47  44  89 SE8       30.02S
CARLSBAD       CLOUDY    42  39  89 NW5       29.97S FOG     WCI  39
DRYDEN           N/A     49  48  97 SE6       30.00R
FORT STOCKTON  CLOUDY    48  46  93 S13       29.98S
GUAD PASS      FOG       38  38 100 CALM      29.97R VSB<1/4
HOBBS          CLOUDY    41  41 100 CALM      29.99S FOG
MARFA          CLOUDY    46  46 100 S14G21    29.99S
MIDLAND AIRPK  CLOUDY    47  47 100 S5        30.02R
MIDLAND INTL   CLOUDY    47  45  93 S12       30.00R
ODESSA         CLOUDY    46  44  93 S9        29.99S
PECOS          CLOUDY    45  44  95 W5        29.99R FOG
PRESIDIO       FAIR      52  51  96 MISG      29.96R
SEMINOLE       RAIN      40  40  99 SE7       30.01R WCI  35
SNYDER         RAIN     N/A N/A N/A SE9       30.03F
WINK           CLOUDY    47  43  86 SE10      29.97S
$$
...OTHER STATIONS IN TEXAS...

CITY           SKY/WX    TMP DP  RH WIND       PRES   REMARKS
ABILENE        LGT RAIN  44  42  93 SE14      30.08S FOG     WCI  37
AMARILLO       MIX PCPN  34  33  96 S10       30.02F WCI  26
AUSTIN         CLOUDY    51  44  77 E5        30.15F
BROWNSVILLE    PTSUNNY   72  63  73 SE17      30.10R
CORPUS CHRISTI PTSUNNY   67  62  84 SE13      30.11S
DALLAS FTW     CLOUDY    48  32  53 SE14      30.21R
DEL RIO        RAIN      50  48  93 SE7       30.05S FOG
EL PASO        CLOUDY    46  43  89 N6        29.91S
HOUSTON INT    CLOUDY    52  42  69 E10       30.21S
LUBBOCK        LGT RAIN  37  36  96 SE6       30.01S FOG     WCI  32
SAN ANGELO     LGT RAIN  48  47  96 NE5       30.05S FOG
SAN ANTONIO    LGT RAIN  52  51  97 SE6       30.14S VSB 1
WACO           CLOUDY    47  35  63 SE12      30.20R
WICHITA FALLS  NOT AVBL
$$
...OTHER LOCATIONS IN NEW MEXICO...

CITY           SKY/WX    TMP DP  RH WIND       PRES   REMARKS
ALAMAGORDO     NOT AVBL
ALBUQUERQUE    LGT RAIN  33  32  96 CALM      29.94S FOG
CANNON AFB     CLOUDY    35  35 100 CALM      29.98F
CLOVIS         CLOUDY    34  32  93 SE8       29.98S WCI  27
HOLLOMAN AFB   CLOUDY    42  42 100 NE7       29.92S WCI  38
ROSWELL        CLOUDY    39  37  92 CALM      29.98S FOG
RUIDOSO        NOT AVBL
SANTA FE       LGT SNOW  31  27  85 S7        29.92S VSB 1   WCI  24
TRUTH OR CONSE CLOUDY    42  41  96 CALM      29.91R
TUCUMCARI      CLOUDY    37  35  92 CALM      29.97S
$$

USA.gov is the U.S. government's official web portal to all federal, state and local government web resources and services.